NOAA 16 DEB

Satellite information

Favourite Embed

Satellite Type and Status

DEBRISIN ORBIT

Key statistics

Satellite NOAA 16 DEB at a glance.

Uptime

9053

Days in orbit

Revolutions

≈ 14.5

Per day

Orbit

SSO

Sun Synchronous Orbit

Inclination

98.9

Latest

Satellite identification and parameters

Extended collection of information and parameters for NOAA 16 DEB.

Object identification

Identified? True

Debris? True

Object name: NOAA 16 DEB

International designator: 2000-055BQ

Object number (NORAD): 41133

Object ID (CCSDS): 41133

Country: UNITED STATES OF AMERICA (US)

Current information (Y/N): Y

RCS size: SMALL

Orbital parameters

Period: 99.166 minutes

Inclination: 98.9279 deg

SMA: 7096.915 km

Apoapsis: 722.775 km

Periapsis: 714.786 km

RAAN: 331.9834 deg

Eccentricy: 0.0005628

Argument of periapsis: 5.1372 deg

Mean anomaly: 354.9878 deg

Mean motion: 14.52105993 rev/day

Mean motion (dot): 0.00013755 rev/day2

B* drag term: 0.0034024 1/REarth

Two-line elements (TLE)

Creation date: July 4, 2025, 6:39 p.m.

Reference frame: TEME

Reference center: EARTH

Epoch: July 4, 2025, 8:30 a.m. UTC

TLE line 0: 0 NOAA 16 DEB

TLE line 1: 1 41133U 00055BQ 25185.35428445 .00013755 00000-0 34024-2 0 9994

TLE line 2: 2 41133 98.9279 331.9834 0005628 5.1372 354.9878 14.52105993495739

Live tracking on map

Real-time ground track for satellite NOAA 16 DEB.

In-orbit conjunctions

A list of the most updated potential collisions computed for object NOAA 16 DEB.

Target Orbit TCA Probability of collision Miss distance Type
CZ-6A DEB LEO 2025-02-01 01:21:20 0.0009386114 241.0 (m) DEBRIS
CZ-6A DEB LEO 2025-01-15 17:50:37 0.0005272876 113.0 (m) DEBRIS

Associated space launch

The NOAA K, L and M POES satellites begin the fifth generation of improved environmental monitoring in support of NOAA missions. The instrument payload has significant improvements and additions/deletions. The instrument changes have effected the spacecraft subsystems and data formats.

NOAA 16 DEB was lifted into orbit during the mission ‘Titan II SLV | NOAA 16’, on board a Titan II SLV space rocket.

The launch took place on Sept. 21, 2000, 10:22 a.m. from Space Launch Complex 4W.

For more information about the launch, click the button.

Launch to space Titan II SLV | NOAA 16
Titan II SLV | NOAA 16

Agency: N/A

Status: Launch Successful

Launch date: Sept. 21, 2000, 10:22 a.m. UTC

Rocket: Titan II SLV

Launch pad: Space Launch Complex 4W

Location: Vandenberg SFB, CA, USA

...

Latest news about this satellite

There are no fresh news available about this satellite. Check back as we update our databases every day.


Newsletter sign-up

Weekly statistics, charts and insights to help you stay on top of the space industry.